Regional Weather Roundup
Issued by NWS Charleston, SC

Current Version | Previous Version | Graphics & Text | Print | Product List | Glossary On
Versions: 1 2 3 4 5 6 7 8 9 10 11 12 13 14 15 16 17 18 19 20 21 22 23 24 25 26 27 28 29 30 31 32 33 34 35 36 37 38 39 40 41 42 43 44 45 46 47 48 49 50
000 ASUS42 KCHS 241027 RWRCHS REGIONAL WEATHER ROUNDUP NATIONAL WEATHER SERVICE CHARLESTON SC 500 AM EST FRI NOV 24 2017 NOTE: "FAIR" INDICATES FEW OR NO CLOUDS BELOW 12,000 FEET WITH NO SIGNIFICANT WEATHER AND/OR OBSTRUCTIONS TO VISIBILITY. NOT ALL STATIONS ARE QUALITY CONTROLLED. USE DATA WITH CAUTION... ESPECIALLY DEWPOINT OBSERVATIONS. SCZ027-030-031-034>040-042>050-241100- ...SOUTHEAST SOUTH CAROLINA... CITY SKY/WX TMP DP RH WIND PRES REMARKS N CHARLESTON PTCLDY 43 41 93 N8 29.98R WATERFRONT PRK N/A 48 45 89 N10 29.81S JOHNS ISLAND FAIR 46 43 87 N9 29.97R PINOPOLIS N/A 45 43 93 NE13 29.92S MONCKS CORNER FAIR 43 39 87 N7 30.00R SUMMERVILLE FAIR 41 37 87 N6 30.00S BEAUFORT MCAS PTCLDY 46 43 89 N8 29.98R BEAUFORT ARPT FAIR 45 43 93 N8 29.96S HILTON HEAD IS NOT AVBL WALTERBORO SUNNY 41 37 87 N6 30.01R ALLENDALE FAIR 39 36 87 N7 30.00S WCI 34 ...SOUTHERN MIDLANDS AND PEE DEE... CITY SKY/WX TMP DP RH WIND PRES REMARKS GEORGETOWN FAIR 43 41 93 N8 30.00R KINGSTREE FAIR 37 36 93 CALM 30.02S ORANGEBURG CLEAR 37 34 89 N3 30.02S BARNWELL N/A 37 36 93 CALM 30.02S AIKEN FAIR 34 32 93 N5 30.05S WCI 30 MANNING FAIR 37 36 93 MISG 30.02S COLUMBIA CLEAR 32 29 88 CALM 30.03F SUMTER CLEAR 34 30 86 NE5 30.00F WCI 29 FLORENCE CLEAR 36 33 89 N7 30.03F WCI 30 MYRTLE BEACH CLOUDY 42 39 89 N12 30.01R N MYRTLE BEACH PTCLDY 42 39 89 N13 29.99S $$ GAZ063-065-086>088-099>101-113>116-118-119-134>141-150-241100- ...SOUTHEAST GEORGIA... CITY SKY/WX TMP DP RH WIND PRES REMARKS SAVANNAH ARPT CLOUDY 44 41 89 N8 29.97R HUNTER AAF CLOUDY 47 41 82 N5 29.93S FORT STEWART CLOUDY 45 40 83 N8 29.94S STATESBORO CLEAR 40 35 81 N6 29.99F WCI 36 SYLVANIA SUNNY 40 37 90 NE9 30.01S WCI 34 CLAXTON FAIR 44 39 83 N3 29.98F ...CSRA...CENTRAL AND FAR SOUTHEAST GEORGIA... CITY SKY/WX TMP DP RH WIND PRES REMARKS THOMSON CLEAR 30 29 96 CALM 30.09S AUGUSTA-BUSH CLEAR 34 32 92 N3 30.03S AUGUSTA-DANIEL CLEAR 39 34 82 N8 30.03S WCI 33 SWAINSBORO FAIR 41 36 81 N6 30.02R VIDALIA CLEAR 41 37 87 N6 29.99S EASTMAN FAIR 41 33 71 N3 30.03S HAZLEHURST FAIR 43 39 85 N3 29.98S ALMA CLEAR 45 40 82 N6 29.96S WAYCROSS CLEAR 46 43 90 N6 29.96S JESUP CLOUDY 48 43 81 CALM 29.95S BAXLEY FAIR 41 41 100 N6 29.97S BRUNSWICK PTCLDY 46 45 93 N7 29.93S SAINT SIMONS CLOUDY 49 48 97 N10 29.91S $$ SCZ027-028-034-036>038-045-046-048>050-GAZ119-141-241100- ...LAKE AND SUPPLEMENTAL COASTAL OBSERVATIONS... STATION/POSITION TIME TEMP WIND PRES WAVE SWELL AIR SEA DIR/SP/G HT/PER HT/PER/DIR (UTC) (F) (DEG/KT/KT) (MB) (FT/S) (FT/S/D) WINYAH BAY 0930 45 10/ 6 1015.0S LAKE MURRAY 1020 36 CALM / 3 1016.6S ACE BASIN NERRS 0945 44 360/ 3 1015.0R FORT PULASKI 1000 49 60 10/ 8/ 10 1014.4 SAPELO ISLAND 1000 50 360/ 12 1013.0 $$ ANZ835-935-AMZ111-154-330-350-352-354-370-450-454-472-241100- ...C-MAN AND BUOY OBSERVATIONS... STATION/POSITION TIME TEMP WIND PRES WAVE SWELL AIR SEA DIR/SP/G HT/PER HT/PER/DIR (UTC) (F) (DEG/KT/KT) (MB) (FT/S) (FT/S/D) BUOY 41004 1010 64 74 30/ 25/ 29 1012.1 BUOY 41008 0950 58 66 30/ 21/ 25 1012.1R 6/ 8 3/100/ 8 FOLLY BEACH CMAN 1000 48 350/ 11/ 14 1014.9R CAPERS NEARSHORE 1008 49 61 20/ 17/ 25 1013.8R FRIPP NEARSHORE 1008 48 61 350/ 12/ 29 1013.6F STATION/POSITION TIME TEMP WIND PRES WAVE SWELL AIR SEA DIR/SP/G HT/PER HT/PER/DIR (UTC) (F) (DEG/KT/KT) (MB) (FT/S) (FT/S/D) 5E ST. MARYS GA 1000 66 N/A 6/ 6 2/ 90/11 FRYING PAN BUOY 1010 59 71 20/ 23/ 29 1013.8 BUOY 41025 1010 58 72 20/ 17/ 23 1015.8 CAPE LOOKOUT NC 1000 20/ 14/ 16 1016.2F BUOY 41002 0950 72 76 90/ 16/ 19 1009.9R 9/ 8 7/ 50/ 8 BUOY 41010 NOT AVBL ST AUGUSTINE FL 1000 61 68 350/ 25/ 28 1010.8R $$

USA.gov is the U.S. government's official web portal to all federal, state and local government web resources and services.